489  
ASUS43 KFSD 292110  
RWRFSD  
 
WEATHER ROUNDUP FOR SE SOUTH DAKOTA/SW MINNESOTA/NW IOWA  
NATIONAL WEATHER SERVICE SIOUX FALLS SD  
300 PM CST SUN JAN 29 2023  
 
NOTE: "FAIR" INDICATES FEW OR NO CLOUDS BELOW 12,000 FEET WITH NO  
SIGNIFICANT WEATHER AND OR S TO VISIBILITY
.  
 
 
SDZ038>040-050-052>070-292200-  
SOUTHEAST SOUTH DAKOTA  
 
CITY SKY/WX TMP DP RH WIND PRES REMARKS
 
BROOKINGS PTSUNNY 3 -4 72 NW15 30.35F WCI -16  
CHAMBERLAIN CLOUDY 4 -3 71 W10 30.40F WCI -11  
HURON MOSUNNY 4 -5 66 NW13 30.41F WCI -13  
MADISON MOSUNNY 3 1 92 W15 30.35S WCI -15  
MITCHELL MOSUNNY 5 -3 69 NW14 30.44S WCI -12  
SIOUX FALLS PTSUNNY 4 -5 66 W10 30.39F WCI -11  
WINNER CLOUDY 5 -2 72 W10 30.38R WCI -10  
YANKTON CLOUDY 5 -3 69 W7 30.44F WCI -7  

 
 
MNZ071-072-080-081-089-090-097-098-292200-  
SOUTHWEST MINNESOTA  
 
CITY SKY/WX TMP DP RH WIND PRES REMARKS
 
FAIRMONT PTSUNNY 3 -6 66 NW10 30.39F WCI -12  
JACKSON SUNNY 3 -6 66 NW9 30.37S WCI -11  
LUVERNE MOSUNNY 3 -4 72 NW10 30.39S WCI -12  
MARSHALL MOSUNNY 6 -3 66 W14 30.39F WCI -11  
MONTEVIDEO MOSUNNY 3 -4 72 W10 30.40S WCI -12  
REDWOOD FALLS SUNNY 4 -5 66 W10 30.40F WCI -11  
TRACY MOSUNNY 3 -2 78 W16 30.37S WCI -16  
WINDOM SUNNY 3 -6 66 W10 30.36F WCI -12  
WORTHINGTON SUNNY 4 -6 63 NW14 30.36F WCI -14  

 
 
IAZ001>003-012>014-020>022-031-032-NEZ013-014-SDZ071-292200-  
NORTHWEST IOWA  
 
CITY SKY/WX TMP DP RH WIND PRES REMARKS
 
CHEROKEE CLOUDY 5 -5 64 NW6 30.42S WCI -6  
DENISON N/A N/A N/A N/A MISG N/A  
ESTHERVILLE CLOUDY 5 -5 63 N9 30.37F WCI -9  
LE MARS PTSUNNY 1 -4 78 NW6 30.43R WCI -10  
MAURICE CLOUDY 1 -6 71 W7 30.41R WCI -11  
SHELDON CLOUDY 1 -4 78 NW8 30.37S WCI -12  
SIOUX CITY CLOUDY 5 -4 66 NW8 30.44F WCI -8  
SPENCER PTSUNNY 6 -6 57 N9 30.38F WCI -8  
STORM LAKE SUNNY 3 -6 66 N9 30.38R WCI -11  

 
 
ABBREVIATIONS USED IN REMARKS  
TC - TEMPERATURE IN CELSIUS  
WCI - WIND CHILL INDEX  
HX - HEAT INDEX  
VSB - VISIBILITY  
 
 
 
CLICK HERE TO GO TO PREVIOUS BULLETINS.

The Nexlab SD Page
The Nexlab IA Page
The Nexlab MN Page
The Nexlab NE Page Main Text Page